K7SKM Weather Reports


Display with metric or nautical units.
time (UTC)temp
F
wind
direction
speed
MPH
gust
MPH
rain 1hr
in
rain 24hr
in
rain mn
in
humidity
%
barometer
mb
20260505052737 59 185 0.0 0.0 0.00 0.00 0.00 71 1016.2
20260505052234 60 188 0.0 0.0 0.00 0.00 0.00 70 1016.3
20260505051731 60 148 0.0 0.0 0.00 0.00 0.00 70 1016.1
20260505051229 60 195 0.0 0.0 0.00 0.00 0.00 69 1016.2
20260505050727 60 212 0.0 0.0 0.00 0.00 0.00 69 1016.0
20260505050225 61 210 0.0 0.0 0.00 0.00 0.00 69 1016.0
20260505041654 63 283 0.0 0.0 0.00 0.00 0.00 64 1015.4
20260505041152 63 318 0.0 3.0 0.00 0.00 0.00 64 1015.3
20260505040649 64 236 0.0 5.0 0.00 0.00 0.00 63 1015.4
20260505040146 64 221 0.0 0.0 0.00 0.00 0.00 63 1015.3
20260505035642 64 217 0.0 0.0 0.00 0.00 0.00 62 1015.1
20260505035138 65 237 0.0 3.0 0.00 0.00 0.00 61 1015.1
20260505034635 65 210 0.0 0.0 0.00 0.00 0.00 61 1015.0
20260505034132 66 212 0.0 0.0 0.00 0.00 0.00 60 1014.8
20260505033628 66 149 0.0 3.0 0.00 0.00 0.00 60 1014.9
20260505033127 66 162 0.0 0.0 0.00 0.00 0.00 59 1014.8
20260505032625 67 290 0.0 0.0 0.00 0.00 0.00 59 1014.8
20260505032121 67 265 0.0 5.0 0.00 0.00 0.00 58 1014.6
20260505031618 68 233 0.0 0.0 0.00 0.00 0.00 57 1014.6
20260505031114 68 307 0.0 3.0 0.00 0.00 0.00 57 1014.5
20260505030612 68 215 0.0 5.0 0.00 0.00 0.00 56 1014.4
20260505030107 69 198 0.0 0.0 0.00 0.00 0.00 55 1014.2
20260505025603 70 200 0.0 3.0 0.00 0.00 0.00 54 1014.4
20260505025102 70 203 0.0 0.0 0.00 0.00 0.00 53 1014.2
20260505024559 71 254 0.0 0.0 0.00 0.00 0.00 53 1014.1
20260505024056 71 198 0.0 0.0 0.00 0.00 0.00 52 1014.3
20260505023554 71 222 0.0 0.0 0.00 0.00 0.00 51 1014.2
20260505023051 72 307 2.0 7.0 0.00 0.00 0.00 50 1014.0
20260505022548 73 279 0.0 0.0 0.00 0.00 0.00 50 1014.0
20260505022045 73 230 0.0 3.0 0.00 0.00 0.00 49 1013.9
20260505021542 75 244 0.0 0.0 0.00 0.00 0.00 49 1013.9
20260505021039 75 233 0.0 0.0 0.00 0.00 0.00 48 1013.7
20260505020538 75 293 0.0 3.0 0.00 0.00 0.00 48 1013.8
20260505020036 75 270 0.0 7.0 0.00 0.00 0.00 48 1013.8
20260505015533 76 270 0.0 0.0 0.00 0.00 0.00 48 1013.6
20260505015030 76 235 0.0 3.0 0.00 0.00 0.00 47 1013.7
20260505014526 77 205 0.0 0.0 0.00 0.00 0.00 47 1013.8
20260505014024 77 252 0.0 0.0 0.00 0.00 0.00 46 1013.7
20260505013521 77 235 0.0 3.0 0.00 0.00 0.00 45 1013.7
20260505013018 77 227 0.0 0.0 0.00 0.00 0.00 44 1013.8
20260505012516 78 212 0.0 0.0 0.00 0.00 0.00 43 1013.7
20260505012013 78 248 0.0 0.0 0.00 0.00 0.00 43 1013.8
20260505011508 79 206 0.0 0.0 0.00 0.00 0.00 43 1013.7
20260505011006 78 305 0.0 5.0 0.00 0.00 0.00 43 1013.8
20260505010501 81 227 0.0 3.0 0.00 0.00 0.00 40 1013.8
20260505005957 81 222 0.0 0.0 0.00 0.00 0.00 39 1013.8
20260505005454 82 264 0.0 0.0 0.00 0.00 0.00 40 1013.8
20260505004952 82 306 0.0 3.0 0.00 0.00 0.00 39 1014.1
20260505004449 82 241 0.0 3.0 0.00 0.00 0.00 38 1013.9
20260505003945 81 269 0.0 5.0 0.00 0.00 0.00 38 1013.8
20260505003443 83 282 0.0 5.0 0.00 0.00 0.00 37 1013.9
20260505002938 83 236 0.0 0.0 0.00 0.00 0.00 38 1013.6
20260505002435 82 222 0.0 0.0 0.00 0.00 0.00 39 1013.9
20260505001934 82 292 2.0 5.0 0.00 0.00 0.00 37 1013.8
20260505001431 82 244 0.0 3.0 0.00 0.00 0.00 38 1013.8
20260505000927 84 265 3.0 5.0 0.00 0.00 0.00 35 1013.9
20260505000428 85 211 0.0 0.0 0.00 0.00 0.00 34 1013.7
20260504235922 83 199 0.0 0.0 0.00 0.00 0.00 35 1013.8
20260504235420 81 215 0.0 5.0 0.00 0.00 0.00 36 1013.7
20260504234915 82 264 0.0 0.0 0.00 0.00 0.00 37 1013.7
20260504234413 81 229 0.0 0.0 0.00 0.00 0.00 35 1013.8
20260504233910 83 210 0.0 0.0 0.00 0.00 0.00 33 1013.7
20260504233405 83 255 0.0 5.0 0.00 0.00 0.00 32 1013.6
20260504232902 83 310 0.0 3.0 0.00 0.00 0.00 34 1013.7
20260504232359 82 230 0.0 3.0 0.00 0.00 0.00 40 1013.6
20260504231856 84 275 0.0 3.0 0.00 0.00 0.00 37 1013.5
20260504231353 84 232 0.0 0.0 0.00 0.00 0.00 37 1013.9
20260504230849 84 274 0.0 3.0 0.00 0.00 0.00 37 1013.9
20260504230346 84 214 0.0 0.0 0.00 0.00 0.00 37 1014.0
20260504225845 82 235 0.0 0.0 0.00 0.00 0.00 38 1014.0
20260504225341 81 187 0.0 5.0 0.00 0.00 0.00 40 1014.2
20260504224839 81 264 1.0 7.0 0.00 0.00 0.00 39 1014.3
20260504224335 83 224 0.0 0.0 0.00 0.00 0.00 36 1014.4
20260504223832 82 277 0.0 0.0 0.00 0.00 0.00 38 1014.4
20260504223328 82 271 5.0 7.0 0.00 0.00 0.00 37 1014.2
20260504222824 81 265 0.0 5.0 0.00 0.00 0.00 38 1014.2
20260504222321 80 306 1.0 7.0 0.00 0.00 0.00 40 1014.7
20260504221820 83 289 1.0 7.0 0.00 0.00 0.00 40 1014.5
20260504221316 82 286 0.0 7.0 0.00 0.00 0.00 40 1014.5
20260504220813 81 274 0.0 7.0 0.00 0.00 0.00 41 1014.4
20260504220310 80 262 3.0 7.0 0.00 0.00 0.00 40 1014.4
20260504215808 79 292 0.0 7.0 0.00 0.00 0.00 41 1014.6
20260504215304 81 279 7.0 10.0 0.00 0.00 0.00 39 1014.7
20260504214800 82 280 7.0 10.0 0.00 0.00 0.00 38 1014.7
20260504214256 82 128 0.0 0.0 0.00 0.00 0.00 40 1014.8
20260504213753 80 196 0.0 10.0 0.00 0.00 0.00 41 1014.7
20260504213249 77 301 3.0 10.0 0.00 0.00 0.00 43 1014.6
20260504212746 79 263 3.0 7.0 0.00 0.00 0.00 39 1014.9
20260504212243 81 287 0.0 0.0 0.00 0.00 0.00 39 1014.9
20260504211741 82 266 0.0 0.0 0.00 0.00 0.00 40 1014.7
20260504211236 80 257 0.0 0.0 0.00 0.00 0.00 40 1014.8
20260504210734 79 221 0.0 10.0 0.00 0.00 0.00 42 1014.9
20260504210231 80 305 0.0 7.0 0.00 0.00 0.00 37 1014.8
20260504205728 79 286 3.0 7.0 0.00 0.00 0.00 37 1014.9
20260504205226 80 220 0.0 0.0 0.00 0.00 0.00 37 1015.0
20260504204724 80 220 0.0 0.0 0.00 0.00 0.00 35 1014.9
20260504204222 81 252 0.0 0.0 0.00 0.00 0.00 34 1014.8
20260504203721 80 253 0.0 0.0 0.00 0.00 0.00 34 1015.0
20260504203218 79 129 3.0 5.0 0.00 0.00 0.00 35 1015.0
20260504202718 78 288 4.0 10.0 0.00 0.00 0.00 36 1015.2
20260504202215 80 260 0.0 0.0 0.00 0.00 0.00 34 1015.0
20260504201712 81 176 0.0 0.0 0.00 0.00 0.00 32 1015.0
20260504201209 80 166 0.0 0.0 0.00 0.00 0.00 33 1015.2
20260504200707 79 133 0.0 3.0 0.00 0.00 0.00 36 1015.2
20260504200203 81 229 0.0 0.0 0.00 0.00 0.00 34 1015.2
20260504195659 80 160 0.0 0.0 0.00 0.00 0.00 33 1015.2
20260504195155 79 164 0.0 3.0 0.00 0.00 0.00 34 1015.2
20260504194653 81 254 0.0 0.0 0.00 0.00 0.00 34 1015.4
20260504194148 81 168 0.0 0.0 0.00 0.00 0.00 34 1015.2
20260504193645 79 219 0.0 0.0 0.00 0.00 0.00 36 1015.4
20260504193143 79 274 0.0 3.0 0.00 0.00 0.00 37 1015.4
20260504192641 79 211 0.0 3.0 0.00 0.00 0.00 37 1015.4
20260504192139 79 193 0.0 0.0 0.00 0.00 0.00 39 1015.4
20260504191637 79 258 0.0 0.0 0.00 0.00 0.00 37 1015.4
20260504191133 78 244 0.0 0.0 0.00 0.00 0.00 38 1015.6
20260504190629 78 202 0.0 0.0 0.00 0.00 0.00 38 1015.6
20260504190126 78 190 0.0 0.0 0.00 0.00 0.00 39 1015.3
20260504185622 77 226 0.0 5.0 0.00 0.00 0.00 42 1015.5
20260504185119 76 306 1.0 5.0 0.00 0.00 0.00 41 1015.6
20260504184614 78 242 0.0 5.0 0.00 0.00 0.00 39 1015.5
20260504184110 78 123 0.0 3.0 0.00 0.00 0.00 41 1015.5
20260504183607 78 234 0.0 5.0 0.00 0.00 0.00 40 1015.5
20260504183105 78 172 0.0 0.0 0.00 0.00 0.00 41 1015.7
20260504182602 79 210 0.0 0.0 0.00 0.00 0.00 39 1015.6
20260504182059 79 201 0.0 0.0 0.00 0.00 0.00 41 1015.7
20260504181556 77 126 0.0 3.0 0.00 0.00 0.00 42 1015.8
20260504181054 76 156 0.0 3.0 0.00 0.00 0.00 43 1015.8
20260504180553 77 150 0.0 0.0 0.00 0.00 0.00 41 1015.5
20260504180052 78 210 0.0 0.0 0.00 0.00 0.00 41 1015.9
20260504175548 75 122 0.0 3.0 0.00 0.00 0.00 45 1015.6
20260504175045 76 137 1.0 5.0 0.00 0.00 0.00 42 1015.6
20260504174543 77 131 0.0 0.0 0.00 0.00 0.00 44 1015.6
20260504174040 76 264 0.0 0.0 0.00 0.00 0.00 44 1015.7
20260504173537 75 214 0.0 5.0 0.00 0.00 0.00 47 1015.8
20260504173034 73 142 1.0 5.0 0.00 0.00 0.00 47 1015.6
20260504172530 75 133 0.0 0.0 0.00 0.00 0.00 46 1015.6
20260504172027 76 157 0.0 0.0 0.00 0.00 0.00 45 1015.6
20260504171524 75 258 0.0 0.0 0.00 0.00 0.00 45 1015.8
20260504171021 76 169 0.0 0.0 0.00 0.00 0.00 45 1015.6
20260504170516 75 130 0.0 0.0 0.00 0.00 0.00 45 1015.6
20260504160437 68 162 0.0 0.0 0.00 0.00 0.00 57 1015.5
20260504150900 57 171 0.0 0.0 0.00 0.00 0.00 73 1015.2
20260504150357 57 124 0.0 0.0 0.00 0.00 0.00 74 1015.3
20260504141327 53 188 0.0 0.0 0.00 0.00 0.00 81 1014.8
20260504140823 53 158 0.0 0.0 0.00 0.00 0.00 81 1015.0
20260504140319 53 154 0.0 0.0 0.00 0.00 0.00 82 1014.9
20260504130748 50 185 0.0 0.0 0.00 0.00 0.00 87 1014.2
20260504130244 50 180 0.0 0.0 0.00 0.00 0.00 87 1014.2
20260504120208 51 197 0.0 0.0 0.00 0.00 0.00 87 1014.0
20260504110635 52 162 0.0 0.0 0.00 0.00 0.00 85 1013.7
20260504110131 52 171 0.0 0.0 0.00 0.00 0.00 85 1013.9
20260504100551 54 148 0.0 0.0 0.00 0.00 0.00 83 1013.8
20260504081945 57 200 0.0 0.0 0.00 0.00 0.00 79 1014.1
20260504081442 57 155 0.0 0.0 0.00 0.00 0.00 79 1014.0
20260504080938 57 201 0.0 0.0 0.00 0.00 0.00 78 1014.0
20260504080435 57 176 0.0 0.0 0.00 0.00 0.00 78 1013.9
20260504070403 59 192 0.0 0.0 0.00 0.00 0.00 75 1013.7